Time,TemperatureF,DewpointF,PressureIn,WindDirection,WindDirectionDegrees,WindSpeedMPH,WindSpeedGustMPH,Humidity,HourlyPrecipIn,Conditions,Clouds,dailyrainin,SoftwareType,DateUTC
2013-10-12 00:09:00,62.5,62.0,21.12,SSE,150,0.0,-999.0,99,-99.99,,,0.00,weatherlink.com 1.10,2013-10-12 04:09:00,
2013-10-12 00:24:00,62.6,62.0,21.12,NNW,342,0.0,-999.0,99,-99.99,,,0.00,weatherlink.com 1.10,2013-10-12 04:24:00,
2013-10-12 00:39:00,62.6,62.0,21.12,NE,55,0.0,-999.0,99,-99.99,,,0.00,weatherlink.com 1.10,2013-10-12 04:39:00,
2013-10-12 00:54:00,62.7,63.0,21.12,WNW,300,1.0,-999.0,99,-99.99,,,0.00,weatherlink.com 1.10,2013-10-12 04:54:00,
2013-10-12 01:09:00,62.6,62.0,21.12,ENE,77,2.0,-999.0,99,-99.99,,,0.00,weatherlink.com 1.10,2013-10-12 05:09:00,
2013-10-12 01:24:00,62.5,62.0,21.12,NW,314,0.0,-999.0,99,-99.99,,,0.00,weatherlink.com 1.10,2013-10-12 05:24:00,
2013-10-12 01:39:00,62.5,62.0,21.12,NNW,327,0.0,-999.0,99,-99.99,,,0.00,weatherlink.com 1.10,2013-10-12 05:39:00,
2013-10-12 01:54:00,62.6,62.0,21.12,NW,311,0.0,-999.0,99,-99.99,,,0.00,weatherlink.com 1.10,2013-10-12 05:54:00,
2013-10-12 02:09:00,62.5,62.0,21.12,NNE,12,0.0,-999.0,99,-99.99,,,0.01,weatherlink.com 1.10,2013-10-12 06:09:00,
2013-10-12 02:24:00,62.5,62.0,21.12,ENE,58,0.0,-999.0,99,-99.99,,,0.02,weatherlink.com 1.10,2013-10-12 06:24:00,
2013-10-12 02:39:00,62.4,62.0,21.12,NNW,338,1.0,-999.0,99,-99.99,,,0.04,weatherlink.com 1.10,2013-10-12 06:39:00,
2013-10-12 02:54:00,62.4,62.0,21.12,WNW,295,0.0,-999.0,99,-99.99,,,0.08,weatherlink.com 1.10,2013-10-12 06:54:00,
2013-10-12 03:09:00,62.4,62.0,21.12,WNW,297,0.0,-999.0,99,-99.99,,,0.09,weatherlink.com 1.10,2013-10-12 07:09:00,
2013-10-12 03:24:00,62.3,62.0,0.00,WNW,296,0.0,-999.0,99,-99.99,,,0.09,weatherlink.com 1.10,2013-10-12 07:24:00,
2013-10-12 03:39:00,62.3,62.0,0.00,South,184,0.0,-999.0,99,-99.99,,,0.09,weatherlink.com 1.10,2013-10-12 07:39:00,
2013-10-12 03:54:00,62.2,62.0,0.00,NE,38,0.0,-999.0,99,-99.99,,,0.09,weatherlink.com 1.10,2013-10-12 07:54:00,
2013-10-12 04:09:00,62.2,62.0,0.00,ENE,70,0.0,-999.0,99,-99.99,,,0.09,weatherlink.com 1.10,2013-10-12 08:09:00,
2013-10-12 04:24:00,62.1,62.0,0.00,North,350,0.0,-999.0,99,-99.99,,,0.09,weatherlink.com 1.10,2013-10-12 08:24:00,
2013-10-12 04:39:00,62.0,62.0,0.00,NNW,347,0.0,-999.0,99,-99.99,,,0.09,weatherlink.com 1.10,2013-10-12 08:39:00,
2013-10-12 04:54:00,62.0,62.0,0.00,North,11,0.0,-999.0,99,-99.99,,,0.09,weatherlink.com 1.10,2013-10-12 08:54:00,
2013-10-12 05:09:00,62.0,62.0,0.00,ESE,109,0.0,-999.0,99,-99.99,,,0.09,weatherlink.com 1.10,2013-10-12 09:09:00,
2013-10-12 05:24:00,61.9,62.0,0.00,NNE,24,0.0,-999.0,99,-99.99,,,0.10,weatherlink.com 1.10,2013-10-12 09:24:00,
2013-10-12 05:39:00,61.9,62.0,0.00,North,355,0.0,-999.0,99,-99.99,,,0.12,weatherlink.com 1.10,2013-10-12 09:39:00,
2013-10-12 05:54:00,61.8,62.0,0.00,NW,307,0.0,-999.0,99,-99.99,,,0.12,weatherlink.com 1.10,2013-10-12 09:54:00,
2013-10-12 06:09:00,61.8,62.0,0.00,ENE,71,0.0,-999.0,99,-99.99,,,0.12,weatherlink.com 1.10,2013-10-12 10:09:00,
2013-10-12 06:24:00,61.7,62.0,0.00,West,263,0.0,-999.0,99,-99.99,,,0.12,weatherlink.com 1.10,2013-10-12 10:24:00,
2013-10-12 06:39:00,61.6,61.0,0.00,North,360,0.0,-999.0,99,-99.99,,,0.12,weatherlink.com 1.10,2013-10-12 10:39:00,
2013-10-12 06:54:00,61.4,61.0,0.00,North,355,1.0,-999.0,99,-99.99,,,0.12,weatherlink.com 1.10,2013-10-12 10:54:00,
2013-10-12 07:09:00,61.3,61.0,0.00,NNW,341,1.0,-999.0,98,-99.99,,,0.12,weatherlink.com 1.10,2013-10-12 11:09:00,
2013-10-12 07:24:00,61.3,61.0,0.00,NNE,19,0.0,-999.0,98,-99.99,,,0.12,weatherlink.com 1.10,2013-10-12 11:24:00,
2013-10-12 07:39:00,61.2,61.0,0.00,NW,318,0.0,-999.0,98,-99.99,,,0.12,weatherlink.com 1.10,2013-10-12 11:39:00,
2013-10-12 07:54:00,61.2,61.0,0.00,ESE,107,0.0,-999.0,98,-99.99,,,0.12,weatherlink.com 1.10,2013-10-12 11:54:00,
2013-10-12 08:09:00,61.1,61.0,0.00,NE,53,0.0,-999.0,98,-99.99,,,0.12,weatherlink.com 1.10,2013-10-12 12:09:00,
2013-10-12 08:24:00,61.0,61.0,0.00,NE,52,1.0,-999.0,98,-99.99,,,0.12,weatherlink.com 1.10,2013-10-12 12:24:00,
2013-10-12 08:39:00,60.9,60.0,0.00,NNW,335,0.0,-999.0,98,-99.99,,,0.19,weatherlink.com 1.10,2013-10-12 12:39:00,
2013-10-12 08:54:00,61.2,61.0,0.00,NW,319,0.0,-999.0,98,-99.99,,,0.25,weatherlink.com 1.10,2013-10-12 12:54:00,
2013-10-12 09:09:00,60.9,60.0,0.00,NW,315,0.0,-999.0,98,-99.99,,,0.26,weatherlink.com 1.10,2013-10-12 13:09:00,
2013-10-12 09:24:00,60.8,60.0,0.00,West,280,0.0,-999.0,98,-99.99,,,0.26,weatherlink.com 1.10,2013-10-12 13:24:00,
2013-10-12 09:39:00,60.8,60.0,0.00,NW,317,0.0,-999.0,98,-99.99,,,0.26,weatherlink.com 1.10,2013-10-12 13:39:00,
2013-10-12 09:54:00,60.8,60.0,0.00,WNW,286,1.0,-999.0,98,-99.99,,,0.26,weatherlink.com 1.10,2013-10-12 13:54:00,
2013-10-12 10:09:00,60.7,60.0,0.00,ENE,57,0.0,-999.0,98,-99.99,,,0.26,weatherlink.com 1.10,2013-10-12 14:09:00,
2013-10-12 10:24:00,60.5,60.0,0.00,SE,146,2.0,-999.0,98,-99.99,,,0.26,weatherlink.com 1.10,2013-10-12 14:24:00,
2013-10-12 10:39:00,60.5,60.0,0.00,NE,48,0.0,-999.0,98,-99.99,,,0.26,weatherlink.com 1.10,2013-10-12 14:39:00,
2013-10-12 10:54:00,60.7,60.0,0.00,NNE,13,0.0,-999.0,98,-99.99,,,0.26,weatherlink.com 1.10,2013-10-12 14:54:00,
2013-10-12 11:09:00,60.5,60.0,0.00,NNE,27,0.0,-999.0,97,-99.99,,,0.26,weatherlink.com 1.10,2013-10-12 15:09:00,
2013-10-12 11:24:00,60.7,60.0,0.00,NW,315,0.0,-999.0,97,-99.99,,,0.26,weatherlink.com 1.10,2013-10-12 15:24:00,
2013-10-12 11:39:00,60.7,60.0,0.00,South,171,0.0,-999.0,97,-99.99,,,0.26,weatherlink.com 1.10,2013-10-12 15:39:00,
2013-10-12 11:54:00,60.7,60.0,0.00,NE,53,0.0,-999.0,97,-99.99,,,0.26,weatherlink.com 1.10,2013-10-12 15:54:00,
2013-10-12 12:09:00,60.9,60.0,0.00,ENE,59,1.0,-999.0,97,-99.99,,,0.26,weatherlink.com 1.10,2013-10-12 16:09:00,
2013-10-12 12:25:00,60.8,60.0,0.00,NNE,30,2.0,-999.0,96,-99.99,,,0.26,weatherlink.com 1.10,2013-10-12 16:25:00,
2013-10-12 12:39:00,61.1,60.0,0.00,NNW,329,0.0,-999.0,96,-99.99,,,0.26,weatherlink.com 1.10,2013-10-12 16:39:00,
2013-10-12 12:54:00,61.6,60.0,0.00,NW,310,0.0,-999.0,95,-99.99,,,0.26,weatherlink.com 1.10,2013-10-12 16:54:00,
2013-10-12 13:09:00,62.3,61.0,0.00,NW,309,0.0,-999.0,95,-99.99,,,0.26,weatherlink.com 1.10,2013-10-12 17:09:00,
2013-10-12 13:24:00,62.7,61.0,0.00,ENE,70,0.0,-999.0,94,-99.99,,,0.26,weatherlink.com 1.10,2013-10-12 17:24:00,
2013-10-12 13:39:00,63.1,61.0,0.00,NE,39,3.0,-999.0,92,-99.99,,,0.26,weatherlink.com 1.10,2013-10-12 17:39:00,
2013-10-12 13:54:00,63.6,61.0,0.00,ESE,121,0.0,-999.0,92,-99.99,,,0.26,weatherlink.com 1.10,2013-10-12 17:54:00,
2013-10-12 14:09:00,63.9,61.0,0.00,SE,129,0.0,-999.0,91,-99.99,,,0.26,weatherlink.com 1.10,2013-10-12 18:09:00,
2013-10-12 14:24:00,64.6,62.0,0.00,WSW,257,0.0,-999.0,90,-99.99,,,0.26,weatherlink.com 1.10,2013-10-12 18:24:00,
2013-10-12 14:39:00,65.4,62.0,0.00,NNE,19,1.0,-999.0,87,-99.99,,,0.26,weatherlink.com 1.10,2013-10-12 18:39:00,
2013-10-12 14:55:00,66.5,62.0,0.00,WSW,256,1.0,-999.0,86,-99.99,,,0.26,weatherlink.com 1.10,2013-10-12 18:55:00,
2013-10-12 15:10:00,67.0,62.0,0.00,WNW,287,0.0,-999.0,84,-99.99,,,0.26,weatherlink.com 1.10,2013-10-12 19:10:00,
2013-10-12 15:25:00,66.8,62.0,0.00,WSW,242,0.0,-999.0,83,-99.99,,,0.26,weatherlink.com 1.10,2013-10-12 19:25:00,
2013-10-12 15:40:00,66.5,61.0,0.00,NE,42,0.0,-999.0,83,-99.99,,,0.26,weatherlink.com 1.10,2013-10-12 19:40:00,
2013-10-12 15:55:00,65.9,61.0,0.00,West,277,1.0,-999.0,84,-99.99,,,0.26,weatherlink.com 1.10,2013-10-12 19:55:00,
2013-10-12 16:10:00,65.4,61.0,0.00,South,176,0.0,-999.0,84,-99.99,,,0.26,weatherlink.com 1.10,2013-10-12 20:10:00,
2013-10-12 16:25:00,65.3,60.0,0.00,North,360,1.0,-999.0,83,-99.99,,,0.26,weatherlink.com 1.10,2013-10-12 20:25:00,
2013-10-12 16:40:00,65.1,60.0,0.00,SE,124,0.0,-999.0,84,-99.99,,,0.26,weatherlink.com 1.10,2013-10-12 20:40:00,
2013-10-12 16:55:00,64.9,60.0,0.00,WNW,282,1.0,-999.0,84,-99.99,,,0.26,weatherlink.com 1.10,2013-10-12 20:55:00,
2013-10-12 17:10:00,64.5,60.0,0.00,North,11,0.0,-999.0,85,-99.99,,,0.26,weatherlink.com 1.10,2013-10-12 21:10:00,
2013-10-12 17:25:00,64.3,60.0,0.00,ENE,60,0.0,-999.0,85,-99.99,,,0.26,weatherlink.com 1.10,2013-10-12 21:25:00,
2013-10-12 17:40:00,64.3,60.0,0.00,NNW,332,0.0,-999.0,86,-99.99,,,0.26,weatherlink.com 1.10,2013-10-12 21:40:00,
2013-10-12 17:55:00,64.2,60.0,0.00,WNW,298,0.0,-999.0,87,-99.99,,,0.26,weatherlink.com 1.10,2013-10-12 21:55:00,
2013-10-12 18:10:00,64.0,60.0,0.00,NW,321,0.0,-999.0,87,-99.99,,,0.26,weatherlink.com 1.10,2013-10-12 22:10:00,
2013-10-12 18:25:00,63.8,60.0,0.00,SW,219,0.0,-999.0,88,-99.99,,,0.26,weatherlink.com 1.10,2013-10-12 22:25:00,
2013-10-12 18:40:00,63.4,60.0,0.00,WNW,284,0.0,-999.0,89,-99.99,,,0.26,weatherlink.com 1.10,2013-10-12 22:40:00,
2013-10-12 18:55:00,63.3,60.0,0.00,WNW,284,0.0,-999.0,90,-99.99,,,0.26,weatherlink.com 1.10,2013-10-12 22:55:00,
2013-10-12 19:10:00,63.2,61.0,0.00,NNE,19,0.0,-999.0,91,-99.99,,,0.26,weatherlink.com 1.10,2013-10-12 23:10:00,
2013-10-12 19:25:00,63.0,61.0,0.00,NNE,26,0.0,-999.0,92,-99.99,,,0.26,weatherlink.com 1.10,2013-10-12 23:25:00,
2013-10-12 19:40:00,62.9,61.0,0.00,NNE,27,0.0,-999.0,93,-99.99,,,0.26,weatherlink.com 1.10,2013-10-12 23:40:00,
2013-10-12 19:55:00,62.6,61.0,0.00,NNW,332,0.0,-999.0,93,-99.99,,,0.26,weatherlink.com 1.10,2013-10-12 23:55:00,
2013-10-12 20:10:00,62.5,61.0,0.00,NNW,332,0.0,-999.0,93,-99.99,,,0.26,weatherlink.com 1.10,2013-10-13 00:10:00,
2013-10-12 20:25:00,62.4,61.0,0.00,NNW,331,0.0,-999.0,94,-99.99,,,0.26,weatherlink.com 1.10,2013-10-13 00:25:00,
2013-10-12 20:40:00,62.3,61.0,0.00,NNW,331,0.0,-999.0,94,-99.99,,,0.26,weatherlink.com 1.10,2013-10-13 00:40:00,
2013-10-12 20:55:00,62.2,61.0,0.00,NNW,332,0.0,-999.0,95,-99.99,,,0.27,weatherlink.com 1.10,2013-10-13 00:55:00,
2013-10-12 21:10:00,62.3,61.0,0.00,ENE,69,0.0,-999.0,95,-99.99,,,0.27,weatherlink.com 1.10,2013-10-13 01:10:00,
2013-10-12 21:25:00,62.5,61.0,0.00,North,355,0.0,-999.0,96,-99.99,,,0.27,weatherlink.com 1.10,2013-10-13 01:25:00,
2013-10-12 21:40:00,62.6,62.0,0.00,ENE,76,0.0,-999.0,96,-99.99,,,0.27,weatherlink.com 1.10,2013-10-13 01:40:00,
2013-10-12 21:55:00,62.7,62.0,0.00,NNE,28,0.0,-999.0,96,-99.99,,,0.27,weatherlink.com 1.10,2013-10-13 01:55:00,
2013-10-12 22:10:00,62.5,61.0,0.00,North,10,0.0,-999.0,96,-99.99,,,0.27,weatherlink.com 1.10,2013-10-13 02:10:00,
2013-10-12 22:25:00,62.4,61.0,0.00,ESE,122,1.0,-999.0,96,-99.99,,,0.27,weatherlink.com 1.10,2013-10-13 02:25:00,
2013-10-12 22:40:00,62.2,61.0,0.00,NW,310,0.0,-999.0,96,-99.99,,,0.27,weatherlink.com 1.10,2013-10-13 02:40:00,
2013-10-12 22:55:00,62.1,61.0,0.00,NW,323,0.0,-999.0,96,-99.99,,,0.27,weatherlink.com 1.10,2013-10-13 02:55:00,
2013-10-12 23:10:00,61.8,61.0,0.00,WNW,302,0.0,-999.0,96,-99.99,,,0.28,weatherlink.com 1.10,2013-10-13 03:10:00,
2013-10-12 23:25:00,61.7,61.0,0.00,NNE,21,0.0,-999.0,96,-99.99,,,0.28,weatherlink.com 1.10,2013-10-13 03:25:00,
2013-10-12 23:40:00,61.6,61.0,0.00,NE,39,0.0,-999.0,97,-99.99,,,0.28,weatherlink.com 1.10,2013-10-13 03:40:00,
2013-10-12 23:55:00,61.5,61.0,0.00,SE,136,0.0,-999.0,97,-99.99,,,0.28,weatherlink.com 1.10,2013-10-13 03:55:00,